Theta_e
302 301 300 300 302 302 300 299 299 300 300 301 300 301 301 301 303 303 303 303 302 304 301 304 308 308 309 313 318 322 322 319 320 321 322 319 317 318 316 316 322 320 323 322 313
302 300 301 301 302 301 299 299 299 300 300 300 300 302 300 301 301 304 301 302 303 303 303 308 309 309 310 313 316 318 316 316 319 319 317 315 314 313 312 314 315 316 316 318 310
302 300 301 301 302 300 299 299 299 300 300 300 301 301 303 302 304 303 302 301 303 303 302 305 309 310 310 312 313 316 317 317 316 312 310 309 308 308 307 308 308 308 308 308 307
301 300 301 301 301 300 299 299 300 300 301 300 301 301 301 302 308 302 302 301 303 302 306 305 307 309 310 310 308 310 310 309 309 307 307 308 306 306 306 307 307 306 306 306 306
301 300 301 301 301 300 299 299 299 300 300 301 301 301 302 305 303 302 302 302 302 303 306 307 307 308 308 307 307 308 307 306 307 306 305 304 305 306 305 305 305 305 306 305 305
301 300 301 301 301 299 299 299 300 300 300 301 301 302 303 305 302 302 302 302 302 304 305 306 307 307 308 307 306 306 307 307 305 306 304 305 305 305 306 305 306 306 305 306 306
301 300 301 301 300 299 299 299 300 300 301 301 301 301 303 302 301 302 302 302 302 302 306 302 306 307 306 307 305 305 306 307 305 305 305 304 306 305 306 305 305 305 306 306 306
301 301 301 301 300 299 299 300 301 301 301 301 301 301 303 301 301 301 302 302 301 302 302 302 303 305 305 304 306 306 306 307 307 305 305 304 306 307 307 306 306 306 307 307 307
301 301 301 301 300 299 299 300 300 301 301 300 301 302 303 301 301 301 302 301 301 301 302 301 304 306 306 307 308 307 306 306 306 306 305 305 306 307 307 307 307 307 307 307 309
301 301 301 301 300 299 299 300 300 301 301 300 300 304 302 302 301 301 301 301 301 302 305 305 305 307 306 306 306 305 305 305 306 306 305 305 306 307 307 307 307 307 307 309 309
301 301 301 301 300 299 299 300 302 305 300 302 301 302 302 301 301 302 301 302 303 304 306 304 306 305 304 304 304 304 306 306 307 305 305 306 306 307 308 308 308 308 309 310 310
303 301 301 301 300 300 299 300 300 302 303 300 300 301 301 301 303 302 302 305 304 305 305 306 305 303 303 303 304 304 304 305 304 304 304 305 307 308 309 308 308 308 309 310 309
304 301 301 301 301 300 299 300 300 299 305 300 300 301 300 301 302 301 301 303 304 303 304 306 304 301 301 303 303 303 303 302 303 304 306 307 308 309 309 307 307 307 309 309 308
304 301 301 302 301 299 299 299 300 299 311 305 302 302 302 301 303 299 299 301 304 303 302 302 301 300 302 302 302 301 303 302 304 305 309 307 311 308 309 308 308 307 307 309 307
305 302 301 301 299 298 299 299 300 301 328 303 302 299 300 303 301 302 299 302 302 301 303 302 301 301 303 302 301 301 301 304 305 306 307 308 309 309 309 308 307 307 308 307 307
306 303 301 301 300 298 298 300 301 315 323 307 301 303 303 302 301 301 302 301 299 300 300 301 298 301 302 301 300 301 306 306 305 307 311 309 308 308 308 307 307 306 307 306 306
312 304 301 301 300 298 298 300 318 321 304 314 304 303 302 302 302 302 303 302 303 311 305 302 300 299 299 300 301 305 307 311 311 314 311 306 306 307 307 307 307 307 306 305 303
313 304 301 301 300 298 298 309 318 313 311 300 301 301 304 301 301 301 303 304 301 300 301 302 304 299 298 299 300 304 306 307 308 309 308 305 307 307 307 306 306 305 304 302 301
314 304 301 301 300 298 301 308 319 314 306 303 299 306 308 300 301 301 303 303 301 300 302 301 301 298 298 298 301 305 306 303 305 306 307 307 307 308 306 306 306 304 302 301 300
313 304 302 301 299 298 304 309 309 298 299 301 316 305 314 305 301 301 301 302 302 300 298 299 300 298 298 298 302 302 302 305 306 307 307 308 307 309 306 306 305 303 302 300 298
311 304 302 301 298 299 307 309 301 297 299 301 309 303 307 306 303 305 305 300 301 300 298 298 298 301 297 300 301 302 305 304 302 303 307 306 307 306 305 307 304 302 301 299 297
308 303 301 299 300 297 305 303 297 299 299 299 299 301 306 303 303 302 303 300 300 299 299 298 300 301 301 298 296 299 302 302 300 302 303 302 303 305 306 306 302 301 300 298 295
305 300 300 299 302 303 300 299 299 299 301 300 300 299 297 301 304 301 299 298 299 299 298 299 300 302 305 300 299 300 300 301 301 299 299 303 307 307 306 304 301 300 299 295 293
304 301 297 297 298 303 303 303 301 300 301 300 300 298 298 299 297 300 299 298 298 299 297 296 298 300 301 300 297 297 297 298 300 300 300 303 304 304 304 301 301 300 297 294 291
306 302 300 299 299 299 301 303 302 302 299 300 299 300 301 300 299 298 298 298 297 298 298 298 299 297 296 297 297 297 297 298 298 298 298 301 300 299 299 301 300 299 295 293 290
308 301 299 300 301 301 299 302 303 302 300 301 300 301 301 304 303 302 299 299 299 297 298 298 298 296 295 296 295 297 297 298 298 298 298 298 298 301 303 299 300 297 294 292 289
307 305 307 299 301 302 304 303 302 300 300 300 300 301 300 300 298 298 297 298 298 298 298 297 297 296 300 294 294 299 298 297 298 298 298 301 305 303 301 298 299 295 293 292 288
Wind_Speed
12 12 11 10 9 9 10 10 10 9 10 7 10 7 6 4 16 17 15 16 18 14 7 3 1 3 6 7 5 6 7 11 14 14 8 5 9 6 8 17 13 10 11 11 13
12 12 11 9 8 8 9 9 9 8 10 10 12 11 1 3 8 15 17 13 15 12 8 3 4 6 4 5 5 10 9 9 7 5 8 13 13 16 16 18 22 21 19 9 20
12 12 10 8 7 7 8 8 8 4 8 12 9 12 5 1 2 10 14 14 15 12 9 4 4 3 2 3 0 1 6 7 2 5 8 13 17 16 17 17 20 21 21 21 20
11 11 10 8 7 6 7 8 7 6 4 7 11 5 12 7 2 14 12 14 14 14 9 3 2 2 3 3 1 4 4 6 6 7 9 10 14 13 18 25 21 19 19 17 19
11 11 10 8 7 7 9 8 5 6 2 4 9 5 5 5 7 13 9 11 11 13 14 5 6 2 2 2 1 4 3 5 5 6 10 12 15 15 27 24 19 13 13 19 23
11 11 10 8 7 7 9 9 6 4 3 2 5 9 5 3 13 12 9 10 8 10 12 15 6 7 5 2 3 4 8 9 5 7 10 9 17 17 8 6 9 13 21 22 21
11 11 10 8 7 8 10 7 5 3 2 1 3 1 9 5 14 12 6 8 9 9 7 9 8 3 1 2 3 5 6 6 5 5 10 13 14 12 12 9 13 20 21 19 18
10 11 10 8 7 9 9 5 6 1 5 1 1 3 3 4 13 13 6 7 10 7 6 8 7 5 5 2 3 4 4 7 3 5 2 8 11 13 17 18 22 19 17 15 13
11 11 10 8 7 9 9 3 6 2 1 4 2 4 2 2 9 17 9 7 4 3 7 7 4 3 4 4 5 2 8 12 11 4 5 7 16 20 28 21 18 16 14 10 8
10 10 10 8 7 8 8 6 6 7 2 1 3 2 3 4 6 17 10 5 4 3 2 4 1 1 9 10 5 11 10 10 14 9 14 18 23 21 26 17 14 11 7 8 8
9 9 10 9 8 8 7 4 3 1 5 5 2 2 4 5 3 13 10 4 3 5 2 4 4 7 9 7 5 8 13 18 16 15 11 14 25 23 21 11 9 6 8 9 9
10 9 9 9 8 7 7 2 2 4 2 3 2 3 4 4 2 14 8 3 5 4 4 3 5 5 5 4 7 11 17 15 10 18 16 19 28 23 10 8 6 10 10 12 13
10 9 9 8 7 6 6 3 2 3 3 0 2 2 3 3 3 11 10 3 4 5 7 4 3 4 4 6 9 14 10 14 17 25 14 11 16 2 5 5 8 12 13 13 15
10 9 8 8 5 5 4 6 1 0 1 2 2 2 4 1 1 9 9 3 3 5 4 3 2 4 5 6 6 11 5 14 18 14 5 10 7 14 3 6 10 9 13 15 19
10 9 7 6 4 4 4 4 1 1 3 2 2 1 3 2 4 5 9 2 4 2 3 3 2 4 4 5 7 8 17 17 15 11 10 2 4 7 13 8 14 16 14 18 23
12 10 7 7 5 3 3 1 2 3 5 2 1 1 1 4 4 7 3 5 2 1 1 2 1 1 3 11 7 13 16 11 4 4 4 2 3 9 6 13 18 20 21 25 37
14 10 8 7 5 3 1 3 3 3 1 1 1 3 2 4 2 6 3 5 3 1 3 1 2 2 1 8 3 13 11 4 3 2 4 2 9 11 14 14 11 15 29 37 40
15 12 10 8 6 4 1 2 2 1 4 3 2 1 2 3 1 1 0 2 5 3 1 3 1 3 2 2 4 5 4 3 5 6 12 16 7 5 15 8 12 31 34 39 35
18 12 11 9 7 5 3 1 5 3 1 6 4 2 1 1 2 2 1 1 2 3 2 2 2 3 2 1 2 1 1 3 4 8 6 6 11 17 1 13 23 30 36 34 32
21 14 10 11 10 7 3 5 3 0 4 2 4 2 3 2 3 3 3 2 3 1 3 3 5 3 3 2 3 1 3 3 3 6 7 6 13 9 14 21 20 25 32 35 39
25 10 8 12 9 4 3 5 3 4 3 4 4 4 2 3 3 3 3 3 3 3 3 2 1 2 1 6 1 3 2 2 2 4 4 7 9 10 12 18 22 26 36 33 36
23 3 12 18 4 2 3 3 3 5 4 2 2 3 4 6 4 4 3 1 7 7 2 2 1 5 2 2 2 5 4 4 3 2 6 7 10 10 15 20 26 33 33 32 34
13 6 16 22 5 6 2 2 3 5 5 6 6 2 2 4 3 3 3 3 8 6 5 5 2 5 3 3 3 4 8 8 1 1 9 4 9 14 20 23 30 31 32 36 34
13 4 6 13 5 2 4 4 3 6 4 4 3 5 4 3 3 3 5 4 7 5 3 4 2 5 7 5 2 6 8 9 8 5 6 14 23 25 20 24 23 31 35 35 33
15 6 10 6 8 7 5 6 5 7 6 9 3 9 7 5 4 5 5 5 5 7 6 3 5 4 12 18 17 18 19 16 17 15 8 17 15 25 22 16 22 29 36 33 34
18 7 11 6 11 18 8 9 10 5 10 6 7 11 12 5 5 7 8 7 4 10 7 4 3 4 6 4 7 14 16 16 17 16 19 25 28 25 16 24 26 30 34 32 34
24 15 16 13 8 12 8 10 11 11 10 4 11 4 12 9 6 8 5 6 8 8 10 5 2 2 5 4 13 9 9 13 7 10 7 8 8 8 15 15 19 26 31 31 33
Wind_Direction
352 352 351 353 355 360 3 4 8 14 11 31 8 328 246 12 40 29 29 4 355 358 6 24 71 178 177 195 207 221 245 249 262 265 296 23 344 291 302 285 272 282 283 306 335
349 351 353 357 358 3 6 1 7 16 25 30 15 16 269 261 8 16 11 4 7 11 26 72 113 148 165 191 200 225 240 273 17 358 307 316 309 309 308 291 281 283 282 280 321
348 350 350 355 360 2 3 2 5 348 30 30 10 23 28 83 26 355 7 13 18 28 32 97 134 151 155 189 326 223 268 22 338 343 315 302 298 303 286 277 281 295 298 302 309
344 346 348 350 355 354 357 355 352 348 315 5 10 2 41 49 4 345 9 17 26 36 29 44 144 164 151 183 282 267 303 323 330 324 309 296 307 282 273 274 288 291 296 302 312
340 345 348 344 348 346 346 344 347 1 343 348 12 28 51 50 8 358 15 21 33 38 37 62 66 35 108 81 204 262 332 297 289 302 306 298 283 286 283 282 285 281 292 298 298
337 346 346 341 340 341 344 341 347 13 61 54 34 42 52 72 5 7 19 27 35 49 42 57 66 68 90 76 326 324 288 275 286 253 296 287 293 294 274 317 279 284 296 296 296
337 344 342 339 335 337 342 338 339 355 326 79 58 337 64 68 17 6 4 20 31 45 35 54 53 70 91 163 335 306 298 245 192 325 303 316 284 226 270 304 292 280 284 292 299
333 340 338 339 334 334 343 344 337 18 42 118 335 86 104 16 20 14 12 8 20 35 42 40 57 52 44 336 261 315 248 343 64 7 337 343 293 303 323 305 289 291 293 298 300
323 333 337 331 331 336 338 291 13 313 69 60 37 139 90 2 10 14 10 14 10 29 38 34 46 64 14 298 224 99 315 318 321 281 303 270 292 291 305 299 291 288 288 287 288
320 329 334 326 324 333 331 303 296 345 221 320 41 164 31 317 353 10 360 16 23 18 7 16 29 25 27 13 358 321 320 314 307 302 317 291 287 295 302 297 286 285 273 260 274
316 324 332 324 323 333 339 326 316 14 64 97 40 19 355 347 24 360 9 38 359 54 20 17 44 27 10 13 338 307 301 301 303 327 310 287 297 298 299 289 274 265 257 262 273
314 320 330 323 324 332 348 320 281 165 65 57 60 30 3 19 320 360 35 54 37 37 340 201 59 24 335 338 316 303 301 311 306 324 320 300 294 294 277 266 278 286 270 271 283
307 315 326 321 325 328 352 360 116 148 270 104 41 10 351 25 23 355 20 33 25 42 25 48 70 347 334 330 327 314 298 325 311 320 302 313 288 275 279 232 270 277 275 282 286
296 305 315 316 319 324 327 345 107 101 286 180 119 313 346 353 253 12 15 33 68 35 11 54 78 351 332 308 321 308 345 312 310 318 307 357 294 315 329 274 302 297 280 280 301
288 293 301 301 298 307 324 345 77 35 324 100 109 322 11 357 336 0 23 28 55 13 300 55 356 2 308 312 327 281 317 302 297 292 307 139 257 283 294 311 342 335 311 299 309
287 283 286 282 280 285 330 35 16 34 249 162 297 337 218 26 26 332 357 51 63 172 100 59 97 245 328 309 288 295 304 311 268 283 260 285 278 286 343 335 328 333 326 316 314
275 269 265 264 270 260 317 49 11 193 78 315 62 13 29 23 41 2 20 46 24 360 11 260 174 129 348 310 200 350 340 348 296 253 293 121 299 260 313 333 335 328 326 318 316
258 251 249 246 245 226 144 59 225 294 212 129 95 69 256 355 38 21 208 134 54 346 328 343 267 202 104 35 312 4 9 32 305 316 301 302 239 274 338 359 330 332 323 320 316
237 233 235 230 220 197 143 119 226 204 127 146 111 123 280 215 287 229 4 120 65 356 7 313 248 130 137 319 267 53 352 350 273 252 268 245 276 286 85 329 332 331 327 321 321
224 206 225 214 200 179 100 239 222 101 143 177 178 173 195 208 224 201 195 123 139 345 323 86 292 168 113 238 205 275 346 236 182 302 298 274 308 300 336 330 338 338 331 327 325
207 177 197 196 185 180 198 225 212 183 193 204 179 145 189 199 255 210 147 161 164 163 309 112 280 148 203 206 219 166 185 219 280 264 291 309 299 348 316 339 342 339 330 324 326
188 151 173 167 131 238 214 200 166 169 192 201 197 123 179 158 197 241 193 196 159 154 199 111 287 268 267 146 321 245 231 193 232 246 252 282 271 278 326 345 341 334 322 328 330
175 139 173 173 162 214 234 220 238 173 202 194 184 144 141 180 229 218 175 134 166 155 197 172 210 299 206 184 165 230 204 225 239 279 243 271 273 323 325 335 334 332 332 335 335
170 151 139 190 198 225 163 201 191 217 221 203 134 129 140 153 187 213 197 170 182 174 176 164 237 239 259 332 10 242 235 222 185 239 268 242 275 296 317 325 332 334 337 338 340
190 198 166 178 205 189 188 178 170 189 223 198 194 219 176 157 189 221 174 154 173 181 194 225 255 229 259 272 278 272 264 250 235 223 237 274 307 295 306 318 336 336 338 340 345
200 166 154 177 150 182 188 196 200 139 169 225 230 202 195 168 197 186 160 182 179 178 198 214 272 318 284 271 262 273 261 241 237 241 254 263 276 280 316 334 342 343 340 343 347
201 184 175 165 156 174 200 192 202 140 215 255 222 175 206 215 117 93 111 115 156 161 189 179 253 311 273 346 310 275 256 210 200 204 207 228 251 335 329 329 337 344 343 344 346